Location: Erlenbrunn
(49.1717°N, 7.6142°E)
Time: 05:25:03
(UTC+00:00)

IRS-1C Rocket - Pass Details

Date: 25 November 2020
Orbit: 800 x 806 km, 99.0° (Epoch: 24 January)

Event Time Altitude Azimuth Distance (km) Brightness Sun altitude
Rises 16:53:14 0° 142° (SE) 3,311 7.1 -12.0°
Reaches altitude 10° 16:55:39 10° 136° (SE) 2,385 6.3 -12.4°
Maximum altitude 17:00:36 43° 66° (ENE) 1,118 4.4 -13.1°
Drops below altitude 10° 17:05:35 10° 356° (N) 2,400 6.4 -13.9°
Sets 17:08:01 0° 350° (N) 3,335 7.3 -14.3°
